Time,TemperatureF,DewpointF,PressureIn,WindDirection,WindDirectionDegrees,WindSpeedMPH,WindSpeedGustMPH,Humidity,HourlyPrecipIn,Conditions,Clouds,dailyrainin,SoftwareType,DateUTC
2013-09-21 00:02:00,56.1,49.7,29.89,ESE,112,0.0,0.0,79,0.00,,,0.00,WUHU21636XXSP,2013-09-21 05:02:00,
2013-09-21 00:07:00,56.1,49.7,29.89,ESE,112,0.0,0.0,79,0.00,,,0.00,WUHU21636XXSP,2013-09-21 05:07:00,
2013-09-21 00:12:00,56.1,49.7,29.89,ESE,112,0.0,0.0,79,0.00,,,0.00,WUHU21636XXSP,2013-09-21 05:12:00,
2013-09-21 00:17:00,56.1,49.7,29.89,ESE,112,0.0,0.0,79,0.00,,,0.00,WUHU21636XXSP,2013-09-21 05:17:00,
2013-09-21 00:22:00,55.9,49.5,29.89,ESE,112,0.0,0.0,79,0.00,,,0.00,WUHU21636XXSP,2013-09-21 05:22:00,
2013-09-21 00:27:00,55.7,49.3,29.89,ESE,112,0.0,0.0,79,0.00,,,0.00,WUHU21636XXSP,2013-09-21 05:27:00,
2013-09-21 00:32:00,55.7,49.3,29.89,ESE,112,0.0,0.0,79,0.00,,,0.00,WUHU21636XXSP,2013-09-21 05:32:00,
2013-09-21 00:37:00,55.7,49.3,29.89,ESE,112,0.0,0.0,79,0.00,,,0.00,WUHU21636XXSP,2013-09-21 05:37:00,
2013-09-21 00:42:00,55.4,49.1,29.89,ESE,112,0.0,0.0,79,0.00,,,0.00,WUHU21636XXSP,2013-09-21 05:42:00,
2013-09-21 00:47:00,55.4,49.4,29.89,ESE,112,0.0,0.0,80,0.00,,,0.00,WUHU21636XXSP,2013-09-21 05:47:00,
2013-09-21 00:52:00,55.3,49.3,29.89,ESE,112,0.0,0.0,80,0.00,,,0.00,WUHU21636XXSP,2013-09-21 05:52:00,
2013-09-21 00:57:00,55.1,49.1,29.89,ESE,112,0.0,0.0,80,0.00,,,0.00,WUHU21636XXSP,2013-09-21 05:57:00,
2013-09-21 01:02:00,55.1,49.1,29.89,ESE,112,0.0,0.0,80,0.00,,,0.00,WUHU21636XXSP,2013-09-21 06:02:00,
2013-09-21 01:07:00,55.1,49.4,29.89,ESE,112,0.0,0.0,81,0.00,,,0.00,WUHU21636XXSP,2013-09-21 06:07:00,
2013-09-21 01:12:00,54.9,49.2,29.89,ESE,112,0.0,0.0,81,0.00,,,0.00,WUHU21636XXSP,2013-09-21 06:12:00,
2013-09-21 01:17:00,54.7,49.0,29.89,ESE,112,0.0,0.0,81,0.00,,,0.00,WUHU21636XXSP,2013-09-21 06:17:00,
2013-09-21 01:22:00,54.7,49.0,29.89,ESE,112,0.0,0.0,81,0.00,,,0.00,WUHU21636XXSP,2013-09-21 06:22:00,
2013-09-21 01:27:00,54.5,48.8,29.89,ESE,112,0.0,0.0,81,0.00,,,0.00,WUHU21636XXSP,2013-09-21 06:27:00,
2013-09-21 01:32:00,54.5,49.1,29.89,ESE,112,0.0,0.0,82,0.00,,,0.00,WUHU21636XXSP,2013-09-21 06:32:00,
2013-09-21 01:37:00,54.5,49.1,29.89,ESE,112,0.0,0.0,82,0.00,,,0.00,WUHU21636XXSP,2013-09-21 06:37:00,
2013-09-21 01:42:00,54.5,49.1,29.89,ESE,112,0.0,0.0,82,0.00,,,0.00,WUHU21636XXSP,2013-09-21 06:42:00,
2013-09-21 01:47:00,54.5,49.1,29.89,ESE,112,0.0,0.0,82,0.00,,,0.00,WUHU21636XXSP,2013-09-21 06:47:00,
2013-09-21 01:52:00,54.5,49.1,29.90,ESE,112,0.0,0.0,82,0.00,,,0.00,WUHU21636XXSP,2013-09-21 06:52:00,
2013-09-21 01:57:00,54.5,49.1,29.89,ESE,112,0.0,0.0,82,0.00,,,0.00,WUHU21636XXSP,2013-09-21 06:57:00,
2013-09-21 02:02:00,54.5,49.1,29.89,ESE,112,0.0,0.0,82,0.00,,,0.00,WUHU21636XXSP,2013-09-21 07:02:00,
2013-09-21 02:07:00,54.5,49.1,29.90,ESE,112,0.0,0.0,82,0.00,,,0.00,WUHU21636XXSP,2013-09-21 07:07:00,
2013-09-21 02:12:00,54.2,48.8,29.89,SE,135,0.0,0.0,82,0.00,,,0.00,WUHU21636XXSP,2013-09-21 07:12:00,
2013-09-21 02:17:00,54.2,48.8,29.89,SE,135,0.0,0.0,82,0.00,,,0.00,WUHU21636XXSP,2013-09-21 07:17:00,
2013-09-21 02:22:00,54.2,48.8,29.89,SE,135,0.0,0.0,82,0.00,,,0.00,WUHU21636XXSP,2013-09-21 07:22:00,
2013-09-21 02:27:00,54.2,48.8,29.89,SE,135,0.0,0.0,82,0.00,,,0.00,WUHU21636XXSP,2013-09-21 07:27:00,
2013-09-21 02:32:00,54.0,48.6,29.89,SE,135,0.0,0.0,82,0.00,,,0.00,WUHU21636XXSP,2013-09-21 07:32:00,
2013-09-21 02:37:00,53.8,48.4,29.89,SE,135,0.0,0.0,82,0.00,,,0.00,WUHU21636XXSP,2013-09-21 07:37:00,
2013-09-21 02:42:00,53.8,48.4,29.89,SE,135,0.0,0.0,82,0.00,,,0.00,WUHU21636XXSP,2013-09-21 07:42:00,
2013-09-21 02:47:00,53.5,48.2,29.89,SE,135,0.0,0.0,82,0.00,,,0.00,WUHU21636XXSP,2013-09-21 07:47:00,
2013-09-21 02:52:00,53.5,48.2,29.90,SE,135,0.0,0.0,82,0.00,,,0.00,WUHU21636XXSP,2013-09-21 07:52:00,
2013-09-21 02:57:00,53.4,48.4,29.90,SE,135,0.0,0.0,83,0.00,,,0.00,WUHU21636XXSP,2013-09-21 07:57:00,
2013-09-21 03:02:00,53.2,47.9,29.90,SE,135,0.0,0.0,82,0.00,,,0.00,WUHU21636XXSP,2013-09-21 08:02:00,
2013-09-21 03:07:00,53.0,47.7,29.90,SE,135,0.0,0.0,82,0.00,,,0.00,WUHU21636XXSP,2013-09-21 08:07:00,
2013-09-21 03:12:00,53.0,48.0,29.89,SE,135,0.0,0.0,83,0.00,,,0.00,WUHU21636XXSP,2013-09-21 08:12:00,
2013-09-21 03:17:00,52.8,47.8,29.90,SE,135,0.0,0.0,83,0.00,,,0.00,WUHU21636XXSP,2013-09-21 08:17:00,
2013-09-21 03:22:00,52.6,47.3,29.90,SE,135,0.0,0.0,82,0.00,,,0.00,WUHU21636XXSP,2013-09-21 08:22:00,
2013-09-21 03:27:00,52.5,47.2,29.90,SE,135,0.0,0.0,82,0.00,,,0.00,WUHU21636XXSP,2013-09-21 08:27:00,
2013-09-21 03:32:00,52.3,47.0,29.90,SE,135,0.0,0.0,82,0.00,,,0.00,WUHU21636XXSP,2013-09-21 08:32:00,
2013-09-21 03:37:00,52.1,47.1,29.90,SE,135,0.0,0.0,83,0.00,,,0.00,WUHU21636XXSP,2013-09-21 08:37:00,
2013-09-21 03:42:00,52.1,47.1,29.90,SE,135,0.0,0.0,83,0.00,,,0.00,WUHU21636XXSP,2013-09-21 08:42:00,
2013-09-21 03:47:00,51.9,46.9,29.90,SE,135,0.0,0.0,83,0.00,,,0.00,WUHU21636XXSP,2013-09-21 08:47:00,
2013-09-21 03:52:00,51.9,46.9,29.90,SE,135,0.0,0.0,83,0.00,,,0.00,WUHU21636XXSP,2013-09-21 08:52:00,
2013-09-21 03:57:00,51.7,46.7,29.90,SE,135,0.0,0.0,83,0.00,,,0.00,WUHU21636XXSP,2013-09-21 08:57:00,
2013-09-21 04:02:00,51.7,46.7,29.90,SE,135,0.0,0.0,83,0.00,,,0.00,WUHU21636XXSP,2013-09-21 09:02:00,
2013-09-21 04:07:00,51.6,46.6,29.90,SE,135,0.0,0.0,83,0.00,,,0.00,WUHU21636XXSP,2013-09-21 09:07:00,
2013-09-21 04:12:00,51.3,46.4,29.90,SE,135,0.0,0.0,83,0.00,,,0.00,WUHU21636XXSP,2013-09-21 09:12:00,
2013-09-21 04:17:00,51.3,46.4,29.90,SE,135,0.0,0.0,83,0.00,,,0.00,WUHU21636XXSP,2013-09-21 09:17:00,
2013-09-21 04:22:00,50.9,46.0,29.90,SE,135,0.0,0.0,83,0.00,,,0.00,WUHU21636XXSP,2013-09-21 09:22:00,
2013-09-21 04:27:00,50.9,46.0,29.90,SE,135,0.0,0.0,83,0.00,,,0.00,WUHU21636XXSP,2013-09-21 09:27:00,
2013-09-21 04:32:00,50.9,46.0,29.90,SE,135,0.0,0.0,83,0.00,,,0.00,WUHU21636XXSP,2013-09-21 09:32:00,
2013-09-21 04:37:00,50.7,45.7,29.90,SE,135,0.0,0.0,83,0.00,,,0.00,WUHU21636XXSP,2013-09-21 09:37:00,
2013-09-21 04:42:00,50.7,45.7,29.90,SE,135,0.0,0.0,83,0.00,,,0.00,WUHU21636XXSP,2013-09-21 09:42:00,
2013-09-21 04:47:00,50.7,45.7,29.90,SE,135,0.0,0.0,83,0.00,,,0.00,WUHU21636XXSP,2013-09-21 09:47:00,
2013-09-21 04:52:00,50.4,45.4,29.90,SE,135,0.0,0.0,83,0.00,,,0.00,WUHU21636XXSP,2013-09-21 09:52:00,
2013-09-21 04:57:00,50.4,45.4,29.91,SE,135,0.0,0.0,83,0.00,,,0.00,WUHU21636XXSP,2013-09-21 09:57:00,
2013-09-21 05:02:00,50.4,45.4,29.91,SE,135,0.0,0.0,83,0.00,,,0.00,WUHU21636XXSP,2013-09-21 10:02:00,
2013-09-21 05:07:00,50.0,45.0,29.91,SE,135,0.0,0.0,83,0.00,,,0.00,WUHU21636XXSP,2013-09-21 10:07:00,
2013-09-21 05:12:00,50.0,45.0,29.91,SE,135,0.0,0.0,83,0.00,,,0.00,WUHU21636XXSP,2013-09-21 10:12:00,
2013-09-21 05:17:00,50.0,45.0,29.91,SE,135,0.0,0.0,83,0.00,,,0.00,WUHU21636XXSP,2013-09-21 10:17:00,
2013-09-21 05:22:00,50.0,45.0,29.91,SE,135,0.0,0.0,83,0.00,,,0.00,WUHU21636XXSP,2013-09-21 10:22:00,
2013-09-21 05:27:00,49.8,44.8,29.91,SE,135,0.0,0.0,83,0.00,,,0.00,WUHU21636XXSP,2013-09-21 10:27:00,
2013-09-21 05:32:00,49.8,44.8,29.91,SE,135,0.0,0.0,83,0.00,,,0.00,WUHU21636XXSP,2013-09-21 10:32:00,
2013-09-21 05:37:00,49.8,44.8,29.91,SE,135,0.0,0.0,83,0.00,,,0.00,WUHU21636XXSP,2013-09-21 10:37:00,
2013-09-21 05:42:00,49.8,44.8,29.91,SE,135,0.0,0.0,83,0.00,,,0.00,WUHU21636XXSP,2013-09-21 10:42:00,
2013-09-21 05:47:00,49.8,44.8,29.91,SE,135,0.0,0.0,83,0.00,,,0.00,WUHU21636XXSP,2013-09-21 10:47:00,
2013-09-21 05:52:00,49.8,45.1,29.91,SE,135,0.0,0.0,84,0.00,,,0.00,WUHU21636XXSP,2013-09-21 10:52:00,
2013-09-21 05:57:00,49.8,45.1,29.92,SE,135,0.0,0.0,84,0.00,,,0.00,WUHU21636XXSP,2013-09-21 10:57:00,
2013-09-21 06:02:00,49.7,45.0,29.92,SE,135,0.0,0.0,84,0.00,,,0.00,WUHU21636XXSP,2013-09-21 11:02:00,
2013-09-21 06:07:00,49.7,45.0,29.92,SE,135,0.0,0.0,84,0.00,,,0.00,WUHU21636XXSP,2013-09-21 11:07:00,
2013-09-21 06:12:00,49.7,45.0,29.92,SE,135,0.0,0.0,84,0.00,,,0.00,WUHU21636XXSP,2013-09-21 11:12:00,
2013-09-21 06:17:00,49.5,44.8,29.92,SE,135,0.0,0.0,84,0.00,,,0.00,WUHU21636XXSP,2013-09-21 11:17:00,
2013-09-21 06:22:00,49.5,44.8,29.92,SE,135,0.0,0.0,84,0.00,,,0.00,WUHU21636XXSP,2013-09-21 11:22:00,
2013-09-21 06:27:00,49.2,44.6,29.92,SE,135,0.0,0.0,84,0.00,,,0.00,WUHU21636XXSP,2013-09-21 11:27:00,
2013-09-21 06:32:00,49.0,44.4,29.92,SE,135,0.0,0.0,84,0.00,,,0.00,WUHU21636XXSP,2013-09-21 11:32:00,
2013-09-21 06:37:00,49.0,44.4,29.93,SE,135,0.0,0.0,84,0.00,,,0.00,WUHU21636XXSP,2013-09-21 11:37:00,
2013-09-21 06:42:00,48.8,44.2,29.92,SE,135,0.0,0.0,84,0.00,,,0.00,WUHU21636XXSP,2013-09-21 11:42:00,
2013-09-21 06:47:00,48.8,44.2,29.93,SE,135,0.0,0.0,84,0.00,,,0.00,WUHU21636XXSP,2013-09-21 11:47:00,
2013-09-21 06:52:00,48.7,44.1,29.93,SE,135,0.0,0.0,84,0.00,,,0.00,WUHU21636XXSP,2013-09-21 11:52:00,
2013-09-21 06:57:00,48.7,44.1,29.93,SE,135,0.0,0.0,84,0.00,,,0.00,WUHU21636XXSP,2013-09-21 11:57:00,
2013-09-21 07:02:00,48.5,43.6,29.93,SE,135,0.0,0.0,83,0.00,,,0.00,WUHU21636XXSP,2013-09-21 12:02:00,
2013-09-21 07:07:00,48.5,43.6,29.93,SE,135,0.0,0.0,83,0.00,,,0.00,WUHU21636XXSP,2013-09-21 12:07:00,
2013-09-21 07:12:00,48.3,43.4,29.93,SE,135,0.0,0.0,83,0.00,,,0.00,WUHU21636XXSP,2013-09-21 12:12:00,
2013-09-21 07:17:00,48.1,43.2,29.94,SE,135,0.0,0.0,83,0.00,,,0.00,WUHU21636XXSP,2013-09-21 12:17:00,
2013-09-21 07:22:00,48.1,43.2,29.93,SE,135,0.0,0.0,83,0.00,,,0.00,WUHU21636XXSP,2013-09-21 12:22:00,
2013-09-21 07:27:00,48.1,43.2,29.94,SE,135,0.0,0.0,83,0.00,,,0.00,WUHU21636XXSP,2013-09-21 12:27:00,
2013-09-21 07:32:00,48.1,43.2,29.94,SE,135,0.0,0.0,83,0.00,,,0.00,WUHU21636XXSP,2013-09-21 12:32:00,
2013-09-21 07:37:00,48.1,43.2,29.94,SE,135,0.0,0.0,83,0.00,,,0.00,WUHU21636XXSP,2013-09-21 12:37:00,
2013-09-21 07:42:00,48.1,43.2,29.94,SE,135,0.0,0.0,83,0.00,,,0.00,WUHU21636XXSP,2013-09-21 12:42:00,
2013-09-21 07:47:00,48.1,43.2,29.94,SE,135,0.0,0.0,83,0.00,,,0.00,WUHU21636XXSP,2013-09-21 12:47:00,
2013-09-21 07:52:00,48.3,43.4,29.94,SE,135,0.0,0.0,83,0.00,,,0.00,WUHU21636XXSP,2013-09-21 12:52:00,
2013-09-21 07:57:00,48.3,43.4,29.94,SE,135,0.0,0.0,83,0.00,,,0.00,WUHU21636XXSP,2013-09-21 12:57:00,
2013-09-21 08:02:00,48.3,43.4,29.94,SE,135,0.0,0.0,83,0.00,,,0.00,WUHU21636XXSP,2013-09-21 13:02:00,
2013-09-21 08:07:00,48.5,43.9,29.94,SE,135,0.0,0.0,84,0.00,,,0.00,WUHU21636XXSP,2013-09-21 13:07:00,
2013-09-21 08:12:00,48.7,44.1,29.94,SE,135,0.0,0.0,84,0.00,,,0.00,WUHU21636XXSP,2013-09-21 13:12:00,
2013-09-21 08:17:00,48.8,44.2,29.94,SE,135,0.0,0.0,84,0.00,,,0.00,WUHU21636XXSP,2013-09-21 13:17:00,
2013-09-21 08:22:00,49.0,44.4,29.94,WSW,247,0.0,0.0,84,0.00,,,0.00,WUHU21636XXSP,2013-09-21 13:22:00,
2013-09-21 08:27:00,49.2,44.6,29.95,SW,225,0.0,0.0,84,0.00,,,0.00,WUHU21636XXSP,2013-09-21 13:27:00,
2013-09-21 08:32:00,49.5,44.8,29.94,SW,225,0.0,0.0,84,0.00,,,0.00,WUHU21636XXSP,2013-09-21 13:32:00,
2013-09-21 08:37:00,49.8,45.1,29.95,SSE,157,0.0,0.0,84,0.00,,,0.00,WUHU21636XXSP,2013-09-21 13:37:00,
2013-09-21 08:42:00,50.0,45.3,29.95,SSE,157,0.0,0.0,84,0.00,,,0.00,WUHU21636XXSP,2013-09-21 13:42:00,
2013-09-21 08:47:00,50.4,45.7,29.95,SE,135,0.0,0.0,84,0.00,,,0.00,WUHU21636XXSP,2013-09-21 13:47:00,
2013-09-21 08:52:00,50.6,46.0,29.94,ESE,112,0.0,0.0,84,0.00,,,0.00,WUHU21636XXSP,2013-09-21 13:52:00,
2013-09-21 08:57:00,50.7,46.4,29.94,SE,135,0.0,0.0,85,0.00,,,0.00,WUHU21636XXSP,2013-09-21 13:57:00,
2013-09-21 09:02:00,50.7,46.1,29.94,ESE,112,0.0,0.0,84,0.00,,,0.00,WUHU21636XXSP,2013-09-21 14:02:00,
2013-09-21 09:07:00,50.7,46.1,29.95,ESE,112,0.0,0.0,84,0.00,,,0.00,WUHU21636XXSP,2013-09-21 14:07:00,
2013-09-21 09:13:00,51.3,46.4,29.95,SE,135,0.0,0.0,83,0.00,,,0.00,WUHU21636XXSP,2013-09-21 14:13:00,
2013-09-21 09:18:00,51.3,46.4,29.95,South,180,0.0,0.0,83,0.00,,,0.00,WUHU21636XXSP,2013-09-21 14:18:00,
2013-09-21 09:23:00,51.7,46.7,29.95,South,180,0.0,0.0,83,0.00,,,0.00,WUHU21636XXSP,2013-09-21 14:23:00,
2013-09-21 09:28:00,51.7,46.4,29.95,SSE,157,0.0,0.0,82,0.00,,,0.00,WUHU21636XXSP,2013-09-21 14:28:00,
2013-09-21 09:33:00,51.7,46.4,29.95,SSE,157,0.0,0.0,82,0.00,,,0.00,WUHU21636XXSP,2013-09-21 14:33:00,
2013-09-21 09:38:00,51.9,46.6,29.95,SSE,157,0.0,0.0,82,0.00,,,0.00,WUHU21636XXSP,2013-09-21 14:38:00,
2013-09-21 09:43:00,51.9,46.6,29.95,SW,225,0.0,0.0,82,0.00,,,0.00,WUHU21636XXSP,2013-09-21 14:43:00,
2013-09-21 09:48:00,52.1,46.5,29.95,SW,225,0.0,0.0,81,0.00,,,0.00,WUHU21636XXSP,2013-09-21 14:48:00,
2013-09-21 09:53:00,52.5,46.9,29.95,SSW,202,0.0,0.0,81,0.00,,,0.00,WUHU21636XXSP,2013-09-21 14:53:00,
2013-09-21 09:58:00,52.6,47.0,29.95,SW,225,0.0,0.0,81,0.00,,,0.00,WUHU21636XXSP,2013-09-21 14:58:00,
2013-09-21 10:03:00,52.6,46.6,29.95,West,270,0.0,0.0,80,0.00,,,0.00,WUHU21636XXSP,2013-09-21 15:03:00,
2013-09-21 10:08:00,52.6,46.3,29.95,WNW,292,0.0,0.0,79,0.00,,,0.00,WUHU21636XXSP,2013-09-21 15:08:00,
2013-09-21 10:13:00,52.8,46.5,29.95,SW,225,0.0,0.0,79,0.00,,,0.00,WUHU21636XXSP,2013-09-21 15:13:00,
2013-09-21 10:18:00,52.8,46.5,29.95,South,180,0.0,0.0,79,0.00,,,0.00,WUHU21636XXSP,2013-09-21 15:18:00,
2013-09-21 10:23:00,53.0,46.7,29.96,NW,315,0.0,0.0,79,0.00,,,0.00,WUHU21636XXSP,2013-09-21 15:23:00,
2013-09-21 10:28:00,53.2,46.3,29.96,ESE,112,0.0,0.0,77,0.00,,,0.00,WUHU21636XXSP,2013-09-21 15:28:00,
2013-09-21 10:33:00,53.2,46.3,29.96,SE,135,0.0,0.0,77,0.00,,,0.00,WUHU21636XXSP,2013-09-21 15:33:00,
2013-09-21 10:38:00,53.4,46.5,29.96,SW,225,0.0,0.0,77,0.00,,,0.00,WUHU21636XXSP,2013-09-21 15:38:00,
2013-09-21 10:43:00,53.5,46.6,29.96,South,180,0.0,0.0,77,0.00,,,0.00,WUHU21636XXSP,2013-09-21 15:43:00,
2013-09-21 10:48:00,53.5,46.6,29.95,South,180,0.0,0.0,77,0.00,,,0.00,WUHU21636XXSP,2013-09-21 15:48:00,
2013-09-21 10:53:00,53.8,46.1,29.96,West,270,0.0,0.0,75,0.00,,,0.00,WUHU21636XXSP,2013-09-21 15:53:00,
2013-09-21 10:58:00,54.0,46.0,29.96,NE,45,0.0,0.0,74,0.00,,,0.00,WUHU21636XXSP,2013-09-21 15:58:00,
2013-09-21 11:03:00,54.2,45.8,29.96,SE,135,0.0,0.0,73,0.00,,,0.00,WUHU21636XXSP,2013-09-21 16:03:00,
2013-09-21 11:08:00,54.5,45.8,29.95,SSE,157,0.0,0.0,72,0.00,,,0.00,WUHU21636XXSP,2013-09-21 16:08:00,
2013-09-21 11:13:00,54.7,44.9,29.96,ENE,67,0.0,0.0,69,0.00,,,0.00,WUHU21636XXSP,2013-09-21 16:13:00,
2013-09-21 11:18:00,55.1,44.5,29.96,NW,315,0.0,0.0,67,0.00,,,0.00,WUHU21636XXSP,2013-09-21 16:18:00,
2013-09-21 11:23:00,55.1,44.9,29.95,ENE,67,0.0,0.0,68,0.00,,,0.00,WUHU21636XXSP,2013-09-21 16:23:00,
2013-09-21 11:28:00,55.4,44.8,29.96,SSW,202,0.0,0.0,67,0.00,,,0.00,WUHU21636XXSP,2013-09-21 16:28:00,
2013-09-21 11:33:00,55.4,45.2,29.96,SW,225,0.0,0.0,68,0.00,,,0.00,WUHU21636XXSP,2013-09-21 16:33:00,
2013-09-21 11:38:00,55.4,45.2,29.97,SE,135,0.0,0.0,68,0.00,,,0.00,WUHU21636XXSP,2013-09-21 16:38:00,
2013-09-21 11:43:00,55.4,45.2,29.97,SE,135,0.0,0.0,68,0.00,,,0.00,WUHU21636XXSP,2013-09-21 16:43:00,
2013-09-21 11:48:00,55.4,45.6,29.97,ESE,112,0.0,0.0,69,0.00,,,0.00,WUHU21636XXSP,2013-09-21 16:48:00,
2013-09-21 11:53:00,55.4,45.2,29.97,ESE,112,0.0,0.0,68,0.00,,,0.00,WUHU21636XXSP,2013-09-21 16:53:00,
2013-09-21 11:58:00,55.7,45.4,29.97,ESE,112,0.0,0.0,68,0.00,,,0.00,WUHU21636XXSP,2013-09-21 16:58:00,
2013-09-21 12:03:00,55.4,44.8,29.96,ESE,112,0.0,0.0,67,0.00,,,0.00,WUHU21636XXSP,2013-09-21 17:03:00,
2013-09-21 12:08:00,55.4,45.6,29.96,SE,135,0.0,0.0,69,0.00,,,0.00,WUHU21636XXSP,2013-09-21 17:08:00,
2013-09-21 12:13:00,55.7,45.4,29.96,SSW,202,0.0,0.0,68,0.00,,,0.00,WUHU21636XXSP,2013-09-21 17:13:00,
2013-09-21 12:18:00,55.7,45.0,29.96,WSW,247,0.0,0.0,67,0.00,,,0.00,WUHU21636XXSP,2013-09-21 17:18:00,
2013-09-21 12:23:00,55.7,45.4,29.96,SW,225,0.0,0.0,68,0.00,,,0.00,WUHU21636XXSP,2013-09-21 17:23:00,
2013-09-21 12:28:00,55.7,44.6,29.97,WSW,247,0.0,0.0,66,0.00,,,0.00,WUHU21636XXSP,2013-09-21 17:28:00,
2013-09-21 12:33:00,55.4,45.2,29.97,ESE,112,0.0,0.0,68,0.00,,,0.00,WUHU21636XXSP,2013-09-21 17:33:00,
2013-09-21 12:38:00,55.7,45.8,29.97,ESE,112,0.0,0.0,69,0.00,,,0.00,WUHU21636XXSP,2013-09-21 17:38:00,
2013-09-21 12:43:00,55.9,45.6,29.96,South,180,0.0,0.0,68,0.00,,,0.00,WUHU21636XXSP,2013-09-21 17:43:00,
2013-09-21 12:48:00,55.9,46.0,29.97,SW,225,0.0,0.0,69,0.00,,,0.00,WUHU21636XXSP,2013-09-21 17:48:00,
2013-09-21 12:53:00,56.1,46.2,29.96,SW,225,0.0,0.0,69,0.00,,,0.00,WUHU21636XXSP,2013-09-21 17:53:00,
2013-09-21 12:58:00,56.3,45.6,29.96,SW,225,0.0,0.0,67,0.00,,,0.00,WUHU21636XXSP,2013-09-21 17:58:00,
2013-09-21 13:03:00,56.4,45.7,29.96,SSE,157,0.0,0.0,67,0.00,,,0.00,WUHU21636XXSP,2013-09-21 18:03:00,
2013-09-21 13:08:00,56.4,46.1,29.96,WSW,247,0.0,0.0,68,0.00,,,0.00,WUHU21636XXSP,2013-09-21 18:08:00,
2013-09-21 13:13:00,56.6,45.9,29.96,SW,225,0.0,0.0,67,0.00,,,0.00,WUHU21636XXSP,2013-09-21 18:13:00,
2013-09-21 13:18:00,56.6,45.9,29.96,ESE,112,0.0,0.0,67,0.00,,,0.00,WUHU21636XXSP,2013-09-21 18:18:00,
2013-09-21 13:23:00,57.2,46.5,29.96,ENE,67,0.0,0.0,67,0.00,,,0.00,WUHU21636XXSP,2013-09-21 18:23:00,
2013-09-21 13:28:00,57.8,46.2,29.95,South,180,0.0,0.0,65,0.00,,,0.00,WUHU21636XXSP,2013-09-21 18:28:00,
2013-09-21 13:33:00,58.3,45.9,29.95,SE,135,0.0,0.0,63,0.00,,,0.00,WUHU21636XXSP,2013-09-21 18:33:00,
2013-09-21 13:38:00,58.7,46.7,29.95,SE,135,0.0,0.0,64,0.00,,,0.00,WUHU21636XXSP,2013-09-21 18:38:00,
2013-09-21 13:43:00,58.9,46.5,29.94,SW,225,0.0,0.0,63,0.00,,,0.00,WUHU21636XXSP,2013-09-21 18:43:00,
2013-09-21 13:48:00,60.1,47.6,29.94,SW,225,0.0,0.0,63,0.00,,,0.00,WUHU21636XXSP,2013-09-21 18:48:00,
2013-09-21 13:53:00,60.4,46.6,29.94,ESE,112,0.0,0.0,60,0.00,,,0.00,WUHU21636XXSP,2013-09-21 18:53:00,
2013-09-21 13:58:00,60.8,47.0,29.94,South,180,0.0,0.0,60,0.00,,,0.00,WUHU21636XXSP,2013-09-21 18:58:00,
2013-09-21 14:03:00,60.8,46.5,29.94,SE,135,0.0,0.0,59,0.00,,,0.00,WUHU21636XXSP,2013-09-21 19:03:00,
2013-09-21 14:08:00,60.8,46.5,29.94,South,180,0.0,0.0,59,0.00,,,0.00,WUHU21636XXSP,2013-09-21 19:08:00,
2013-09-21 14:13:00,60.8,47.0,29.94,SE,135,0.0,0.0,60,0.00,,,0.00,WUHU21636XXSP,2013-09-21 19:13:00,
2013-09-21 14:18:00,61.3,47.0,29.94,ESE,112,0.0,0.0,59,0.00,,,0.00,WUHU21636XXSP,2013-09-21 19:18:00,
2013-09-21 14:23:00,61.3,47.9,29.94,South,180,0.0,0.0,61,0.00,,,0.00,WUHU21636XXSP,2013-09-21 19:23:00,
2013-09-21 14:28:00,61.7,46.9,29.94,SSW,202,0.0,0.0,58,0.00,,,0.00,WUHU21636XXSP,2013-09-21 19:28:00,
2013-09-21 14:33:00,62.1,46.8,29.94,ENE,67,3.0,3.0,57,0.00,,,0.00,WUHU21636XXSP,2013-09-21 19:33:00,
2013-09-21 14:38:00,62.5,48.1,29.94,East,90,0.0,3.0,59,0.00,,,0.00,WUHU21636XXSP,2013-09-21 19:38:00,
2013-09-21 14:43:00,62.9,48.0,29.94,East,90,0.0,3.0,58,0.00,,,0.00,WUHU21636XXSP,2013-09-21 19:43:00,
2013-09-21 14:48:00,62.7,47.3,29.94,South,180,0.0,0.0,57,0.00,,,0.00,WUHU21636XXSP,2013-09-21 19:48:00,
2013-09-21 14:53:00,63.0,47.2,29.93,SW,225,0.0,0.0,56,0.00,,,0.00,WUHU21636XXSP,2013-09-21 19:53:00,
2013-09-21 14:58:00,63.2,48.3,29.93,West,270,0.0,0.0,58,0.00,,,0.00,WUHU21636XXSP,2013-09-21 19:58:00,
2013-09-21 15:03:00,63.8,47.9,29.93,WSW,247,0.0,0.0,56,0.00,,,0.00,WUHU21636XXSP,2013-09-21 20:03:00,
2013-09-21 15:08:00,64.2,48.2,29.93,WSW,247,0.0,0.0,56,0.00,,,0.00,WUHU21636XXSP,2013-09-21 20:08:00,
2013-09-21 15:13:00,64.4,47.9,29.93,West,270,0.0,0.0,55,0.00,,,0.00,WUHU21636XXSP,2013-09-21 20:13:00,
2013-09-21 15:18:00,64.8,48.3,29.93,SSW,202,0.0,0.0,55,0.00,,,0.00,WUHU21636XXSP,2013-09-21 20:18:00,
2013-09-21 15:23:00,64.9,48.9,29.93,SE,135,0.0,0.0,56,0.00,,,0.00,WUHU21636XXSP,2013-09-21 20:23:00,
2013-09-21 15:28:00,64.8,48.8,29.92,South,180,0.0,0.0,56,0.00,,,0.00,WUHU21636XXSP,2013-09-21 20:28:00,
2013-09-21 15:33:00,64.9,48.9,29.93,SW,225,0.0,0.0,56,0.00,,,0.00,WUHU21636XXSP,2013-09-21 20:33:00,
2013-09-21 15:38:00,64.9,48.9,29.92,SSW,202,0.0,0.0,56,0.00,,,0.00,WUHU21636XXSP,2013-09-21 20:38:00,
2013-09-21 15:43:00,64.9,48.9,29.92,SSE,157,0.0,0.0,56,0.00,,,0.00,WUHU21636XXSP,2013-09-21 20:43:00,
2013-09-21 15:48:00,64.9,49.4,29.92,East,90,0.0,0.0,57,0.00,,,0.00,WUHU21636XXSP,2013-09-21 20:48:00,
2013-09-21 15:53:00,65.3,49.8,29.92,ESE,112,0.0,0.0,57,0.00,,,0.00,WUHU21636XXSP,2013-09-21 20:53:00,
2013-09-21 15:58:00,65.8,49.3,29.92,NE,45,0.0,0.0,55,0.00,,,0.00,WUHU21636XXSP,2013-09-21 20:58:00,
2013-09-21 16:03:00,65.5,48.5,29.92,South,180,0.0,0.0,54,0.00,,,0.00,WUHU21636XXSP,2013-09-21 21:03:00,
2013-09-21 16:08:00,65.5,49.0,29.92,South,180,0.0,0.0,55,0.00,,,0.00,WUHU21636XXSP,2013-09-21 21:08:00,
2013-09-21 16:13:00,65.8,49.8,29.92,SSE,157,0.0,0.0,56,0.00,,,0.00,WUHU21636XXSP,2013-09-21 21:13:00,
2013-09-21 16:18:00,65.8,48.3,29.92,NNE,22,0.0,0.0,53,0.00,,,0.00,WUHU21636XXSP,2013-09-21 21:18:00,
2013-09-21 16:23:00,65.8,49.3,29.92,East,90,0.0,0.0,55,0.00,,,0.00,WUHU21636XXSP,2013-09-21 21:23:00,
2013-09-21 16:28:00,65.5,49.5,29.92,West,270,0.0,0.0,56,0.00,,,0.00,WUHU21636XXSP,2013-09-21 21:28:00,
2013-09-21 16:33:00,65.3,49.3,29.91,West,270,0.0,0.0,56,0.00,,,0.00,WUHU21636XXSP,2013-09-21 21:33:00,
2013-09-21 16:38:00,65.3,48.8,29.91,WSW,247,0.0,0.0,55,0.00,,,0.00,WUHU21636XXSP,2013-09-21 21:38:00,
2013-09-21 16:43:00,65.1,49.1,29.91,WSW,247,0.0,0.0,56,0.00,,,0.00,WUHU21636XXSP,2013-09-21 21:43:00,
2013-09-21 16:48:00,65.1,49.1,29.91,WSW,247,0.0,0.0,56,0.00,,,0.00,WUHU21636XXSP,2013-09-21 21:48:00,
2013-09-21 16:53:00,64.9,49.4,29.91,NNW,337,0.0,0.0,57,0.00,,,0.00,WUHU21636XXSP,2013-09-21 21:53:00,
2013-09-21 16:58:00,64.9,50.8,29.91,NNW,337,0.0,0.0,60,0.00,,,0.00,WUHU21636XXSP,2013-09-21 21:58:00,
2013-09-21 17:03:00,64.8,50.3,29.91,NNW,337,0.0,0.0,59,0.00,,,0.00,WUHU21636XXSP,2013-09-21 22:03:00,
2013-09-21 17:08:00,64.2,49.2,29.91,WNW,292,0.0,0.0,58,0.00,,,0.00,WUHU21636XXSP,2013-09-21 22:08:00,
2013-09-21 17:14:00,64.2,49.2,29.90,WNW,292,0.0,0.0,58,0.00,,,0.00,WUHU21636XXSP,2013-09-21 22:14:00,
2013-09-21 17:19:00,63.9,50.4,29.91,WNW,292,0.0,0.0,61,0.00,,,0.00,WUHU21636XXSP,2013-09-21 22:19:00,
2013-09-21 17:24:00,63.9,50.4,29.91,WNW,292,0.0,0.0,61,0.00,,,0.00,WUHU21636XXSP,2013-09-21 22:24:00,
2013-09-21 17:29:00,63.4,49.9,29.91,WNW,292,0.0,0.0,61,0.00,,,0.00,WUHU21636XXSP,2013-09-21 22:29:00,
2013-09-21 17:34:00,63.0,50.4,29.91,WNW,292,0.0,0.0,63,0.00,,,0.00,WUHU21636XXSP,2013-09-21 22:34:00,
2013-09-21 17:39:00,62.7,50.1,29.90,WNW,292,0.0,0.0,63,0.00,,,0.00,WUHU21636XXSP,2013-09-21 22:39:00,
2013-09-21 17:44:00,62.3,49.2,29.91,WNW,292,0.0,0.0,62,0.00,,,0.00,WUHU21636XXSP,2013-09-21 22:44:00,
2013-09-21 17:49:00,62.1,49.9,29.91,WNW,292,0.0,0.0,64,0.00,,,0.00,WUHU21636XXSP,2013-09-21 22:49:00,
2013-09-21 17:54:00,61.1,49.8,29.91,WNW,292,0.0,0.0,66,0.00,,,0.00,WUHU21636XXSP,2013-09-21 22:54:00,
2013-09-21 17:59:00,61.1,50.2,29.91,WNW,292,0.0,0.0,67,0.00,,,0.00,WUHU21636XXSP,2013-09-21 22:59:00,
2013-09-21 18:04:00,60.6,50.1,29.91,WNW,292,0.0,0.0,68,0.00,,,0.00,WUHU21636XXSP,2013-09-21 23:04:00,
2013-09-21 18:09:00,59.8,49.8,29.91,WNW,292,0.0,0.0,69,0.00,,,0.00,WUHU21636XXSP,2013-09-21 23:09:00,
2013-09-21 18:14:00,59.4,49.4,29.91,WNW,292,0.0,0.0,69,0.00,,,0.00,WUHU21636XXSP,2013-09-21 23:14:00,
2013-09-21 18:19:00,58.9,49.3,29.91,WNW,292,0.0,0.0,70,0.00,,,0.00,WUHU21636XXSP,2013-09-21 23:19:00,
2013-09-21 18:24:00,58.7,49.1,29.91,WNW,292,0.0,0.0,70,0.00,,,0.00,WUHU21636XXSP,2013-09-21 23:24:00,
2013-09-21 18:29:00,58.7,49.4,29.91,WNW,292,0.0,0.0,71,0.00,,,0.00,WUHU21636XXSP,2013-09-21 23:29:00,
2013-09-21 18:34:00,58.5,49.2,29.91,WNW,292,0.0,0.0,71,0.00,,,0.00,WUHU21636XXSP,2013-09-21 23:34:00,
2013-09-21 18:39:00,58.5,49.2,29.91,WNW,292,0.0,0.0,71,0.00,,,0.00,WUHU21636XXSP,2013-09-21 23:39:00,
2013-09-21 18:44:00,58.3,49.0,29.91,WNW,292,0.0,0.0,71,0.00,,,0.00,WUHU21636XXSP,2013-09-21 23:44:00,
2013-09-21 18:49:00,58.3,49.0,29.91,WNW,292,0.0,0.0,71,0.00,,,0.00,WUHU21636XXSP,2013-09-21 23:49:00,
2013-09-21 18:54:00,57.8,48.9,29.91,WNW,292,0.0,0.0,72,0.00,,,0.00,WUHU21636XXSP,2013-09-21 23:54:00,
2013-09-21 18:59:00,57.5,48.7,29.91,WNW,292,0.0,0.0,72,0.00,,,0.00,WUHU21636XXSP,2013-09-21 23:59:00,
2013-09-21 19:04:00,57.2,48.4,29.91,WNW,292,0.0,0.0,72,0.00,,,0.00,WUHU21636XXSP,2013-09-22 00:04:00,
2013-09-21 19:09:00,57.0,48.2,29.91,WNW,292,0.0,0.0,72,0.00,,,0.00,WUHU21636XXSP,2013-09-22 00:09:00,
2013-09-21 19:14:00,56.6,48.1,29.91,WNW,292,0.0,0.0,73,0.00,,,0.00,WUHU21636XXSP,2013-09-22 00:14:00,
2013-09-21 19:19:00,56.4,47.9,29.91,WNW,292,0.0,0.0,73,0.00,,,0.00,WUHU21636XXSP,2013-09-22 00:19:00,
2013-09-21 19:24:00,55.9,47.4,29.91,WNW,292,0.0,0.0,73,0.00,,,0.00,WUHU21636XXSP,2013-09-22 00:24:00,
2013-09-21 19:29:00,55.7,47.2,29.92,WNW,292,0.0,0.0,73,0.00,,,0.00,WUHU21636XXSP,2013-09-22 00:29:00,
2013-09-21 19:34:00,55.3,47.3,29.92,WNW,292,0.0,0.0,74,0.00,,,0.00,WUHU21636XXSP,2013-09-22 00:34:00,
2013-09-21 19:39:00,55.3,47.3,29.92,WNW,292,0.0,0.0,74,0.00,,,0.00,WUHU21636XXSP,2013-09-22 00:39:00,
2013-09-21 19:44:00,54.7,46.7,29.92,WNW,292,0.0,0.0,74,0.00,,,0.00,WUHU21636XXSP,2013-09-22 00:44:00,
2013-09-21 19:49:00,54.5,46.5,29.92,WNW,292,0.0,0.0,74,0.00,,,0.00,WUHU21636XXSP,2013-09-22 00:49:00,
2013-09-21 19:54:00,54.2,46.5,29.92,WNW,292,0.0,0.0,75,0.00,,,0.00,WUHU21636XXSP,2013-09-22 00:54:00,
2013-09-21 19:59:00,54.0,46.7,29.92,WNW,292,0.0,0.0,76,0.00,,,0.00,WUHU21636XXSP,2013-09-22 00:59:00,
2013-09-21 20:04:00,53.8,46.4,29.93,WNW,292,0.0,0.0,76,0.00,,,0.00,WUHU21636XXSP,2013-09-22 01:04:00,
2013-09-21 20:09:00,53.8,46.1,29.93,WNW,292,0.0,0.0,75,0.00,,,0.00,WUHU21636XXSP,2013-09-22 01:09:00,
2013-09-21 20:14:00,53.5,45.9,29.93,WNW,292,0.0,0.0,75,0.00,,,0.00,WUHU21636XXSP,2013-09-22 01:14:00,
2013-09-21 20:19:00,53.4,45.8,29.93,WNW,292,0.0,0.0,75,0.00,,,0.00,WUHU21636XXSP,2013-09-22 01:19:00,
2013-09-21 20:24:00,53.0,45.7,29.93,WNW,292,0.0,0.0,76,0.00,,,0.00,WUHU21636XXSP,2013-09-22 01:24:00,
2013-09-21 20:29:00,52.6,45.3,29.93,WNW,292,0.0,0.0,76,0.00,,,0.00,WUHU21636XXSP,2013-09-22 01:29:00,
2013-09-21 20:34:00,52.1,45.2,29.93,WNW,292,0.0,0.0,77,0.00,,,0.00,WUHU21636XXSP,2013-09-22 01:34:00,
2013-09-21 20:39:00,51.9,45.0,29.93,WNW,292,0.0,0.0,77,0.00,,,0.00,WUHU21636XXSP,2013-09-22 01:39:00,
2013-09-21 20:44:00,51.9,45.3,29.93,WNW,292,0.0,0.0,78,0.00,,,0.00,WUHU21636XXSP,2013-09-22 01:44:00,
2013-09-21 20:49:00,51.7,45.1,29.93,WNW,292,0.0,0.0,78,0.00,,,0.00,WUHU21636XXSP,2013-09-22 01:49:00,
2013-09-21 20:54:00,51.3,44.8,29.93,WNW,292,0.0,0.0,78,0.00,,,0.00,WUHU21636XXSP,2013-09-22 01:54:00,
2013-09-21 20:59:00,51.3,44.8,29.93,WNW,292,0.0,0.0,78,0.00,,,0.00,WUHU21636XXSP,2013-09-22 01:59:00,
2013-09-21 21:04:00,51.1,44.6,29.94,WNW,292,0.0,0.0,78,0.00,,,0.00,WUHU21636XXSP,2013-09-22 02:04:00,
2013-09-21 21:09:00,50.9,44.4,29.94,WNW,292,0.0,0.0,78,0.00,,,0.00,WUHU21636XXSP,2013-09-22 02:09:00,
2013-09-21 21:14:00,50.9,44.4,29.94,WNW,292,0.0,0.0,78,0.00,,,0.00,WUHU21636XXSP,2013-09-22 02:14:00,
2013-09-21 21:19:00,50.9,44.4,29.94,WNW,292,0.0,0.0,78,0.00,,,0.00,WUHU21636XXSP,2013-09-22 02:19:00,
2013-09-21 21:24:00,50.7,44.5,29.94,WNW,292,0.0,0.0,79,0.00,,,0.00,WUHU21636XXSP,2013-09-22 02:24:00,
2013-09-21 21:29:00,50.4,44.2,29.94,WNW,292,0.0,0.0,79,0.00,,,0.00,WUHU21636XXSP,2013-09-22 02:29:00,
2013-09-21 21:34:00,50.4,44.2,29.94,WNW,292,0.0,0.0,79,0.00,,,0.00,WUHU21636XXSP,2013-09-22 02:34:00,
2013-09-21 21:39:00,50.2,44.0,29.94,WNW,292,0.0,0.0,79,0.00,,,0.00,WUHU21636XXSP,2013-09-22 02:39:00,
2013-09-21 21:44:00,50.0,43.8,29.94,WNW,292,0.0,0.0,79,0.00,,,0.00,WUHU21636XXSP,2013-09-22 02:44:00,
2013-09-21 21:49:00,50.0,43.8,29.94,WNW,292,0.0,0.0,79,0.00,,,0.00,WUHU21636XXSP,2013-09-22 02:49:00,
2013-09-21 21:54:00,50.0,43.8,29.94,WNW,292,0.0,0.0,79,0.00,,,0.00,WUHU21636XXSP,2013-09-22 02:54:00,
2013-09-21 21:59:00,49.8,43.6,29.94,WNW,292,0.0,0.0,79,0.00,,,0.00,WUHU21636XXSP,2013-09-22 02:59:00,
2013-09-21 22:04:00,49.8,43.6,29.94,WNW,292,0.0,0.0,79,0.00,,,0.00,WUHU21636XXSP,2013-09-22 03:04:00,
2013-09-21 22:09:00,49.7,43.8,29.94,WNW,292,0.0,0.0,80,0.00,,,0.00,WUHU21636XXSP,2013-09-22 03:09:00,
2013-09-21 22:14:00,49.5,43.6,29.94,WNW,292,0.0,0.0,80,0.00,,,0.00,WUHU21636XXSP,2013-09-22 03:14:00,
2013-09-21 22:19:00,49.5,43.6,29.94,WNW,292,0.0,0.0,80,0.00,,,0.00,WUHU21636XXSP,2013-09-22 03:19:00,
2013-09-21 22:24:00,49.0,43.2,29.95,WNW,292,0.0,0.0,80,0.00,,,0.00,WUHU21636XXSP,2013-09-22 03:24:00,
2013-09-21 22:29:00,48.8,43.0,29.95,WNW,292,0.0,0.0,80,0.00,,,0.00,WUHU21636XXSP,2013-09-22 03:29:00,
2013-09-21 22:35:00,48.8,43.0,29.95,WNW,292,0.0,0.0,80,0.00,,,0.00,WUHU21636XXSP,2013-09-22 03:35:00,
2013-09-21 22:39:00,48.8,43.0,29.95,WNW,292,0.0,0.0,80,0.00,,,0.00,WUHU21636XXSP,2013-09-22 03:39:00,
2013-09-21 22:45:00,48.8,43.0,29.95,WNW,292,0.0,0.0,80,0.00,,,0.00,WUHU21636XXSP,2013-09-22 03:45:00,
2013-09-21 22:50:00,48.5,42.7,29.95,WNW,292,0.0,0.0,80,0.00,,,0.00,WUHU21636XXSP,2013-09-22 03:50:00,
2013-09-21 22:55:00,48.5,42.7,29.95,WNW,292,0.0,0.0,80,0.00,,,0.00,WUHU21636XXSP,2013-09-22 03:55:00,
2013-09-21 23:00:00,48.3,42.8,29.95,WNW,292,0.0,0.0,81,0.00,,,0.00,WUHU21636XXSP,2013-09-22 04:00:00,
2013-09-21 23:01:00,48.3,42.8,29.95,WNW,292,0.0,0.0,81,0.00,,,0.00,WUHU21636XXSP,2013-09-22 04:01:00,
2013-09-21 23:06:00,48.1,42.6,29.96,WNW,292,0.0,0.0,81,0.00,,,0.00,WUHU21636XXSP,2013-09-22 04:06:00,
2013-09-21 23:11:00,47.9,42.4,29.96,WNW,292,0.0,0.0,81,0.00,,,0.00,WUHU21636XXSP,2013-09-22 04:11:00,
2013-09-21 23:16:00,47.9,42.4,29.96,WNW,292,0.0,0.0,81,0.00,,,0.00,WUHU21636XXSP,2013-09-22 04:16:00,
2013-09-21 23:21:00,47.9,42.4,29.96,WNW,292,0.0,0.0,81,0.00,,,0.00,WUHU21636XXSP,2013-09-22 04:21:00,
2013-09-21 23:26:00,47.9,42.4,29.96,WNW,292,0.0,0.0,81,0.00,,,0.00,WUHU21636XXSP,2013-09-22 04:26:00,
2013-09-21 23:31:00,47.8,42.2,29.96,WNW,292,0.0,0.0,81,0.00,,,0.00,WUHU21636XXSP,2013-09-22 04:31:00,
2013-09-21 23:36:00,47.8,42.2,29.96,WNW,292,0.0,0.0,81,0.00,,,0.00,WUHU21636XXSP,2013-09-22 04:36:00,
2013-09-21 23:41:00,47.8,42.2,29.96,WNW,292,0.0,0.0,81,0.00,,,0.00,WUHU21636XXSP,2013-09-22 04:41:00,
2013-09-21 23:46:00,47.6,42.0,29.96,WNW,292,0.0,0.0,81,0.00,,,0.00,WUHU21636XXSP,2013-09-22 04:46:00,
2013-09-21 23:51:00,47.6,42.0,29.97,WNW,292,0.0,0.0,81,0.00,,,0.00,WUHU21636XXSP,2013-09-22 04:51:00,
2013-09-21 23:56:00,47.4,41.8,29.97,WNW,292,0.0,0.0,81,0.00,,,0.00,WUHU21636XXSP,2013-09-22 04:56:00,